Location: Newark
(7.0858°N, 171.3717°E)
Time: 15:07:18
(UTC+00:00)

Vanguard 3 - Pass Details

Date: 27 November 2020
Orbit: 508 x 3262 km, 33.4° (Epoch: 14 January)

Event Time Altitude Azimuth Distance (km) Brightness Sun altitude
Exits shadow 15:30:03 52° 37° (NE) 2,256 9.2 -42.6°
Maximum altitude 15:30:06 52° 37° (NE) 2,260 9.2 -42.5°
Drops below altitude 10° 15:44:54 10° 109° (ESE) 5,557 12.1 -39.1°
Sets 15:50:11 0° 114° (ESE) 6,881 12.8 -37.9°
